ARIANE 2 DEB, 26728

Orbit data source: Space-Track

ARIANE 2 DEB, 26728 is space debris in HEO originally from a launch on Fri, 27 Jan 1989 UTC launched from the French Guiana (FRGUI). Debris objects in space refer to the collection of defunct objects orbiting the Earth. Examples of debris include non-operational satellites, rocket bodies, and fragments generated from explosions, collisions, or faulty payload assembly.

Loading next visibility...
Identifier
26728, 1989-006F
Orbit
HEO
Country
Flag of FRFR
Related business
Manufacturer
EADS/LV
Mission
Spacecraft
Bus & Motor
Unknown
Mass
Unknown
Launch date (UTC)
1989-01-27 (37 years ago)
Launch vehicle
Unknown
Launch site
French Guiana (FRGUI)
Object type
Payload
Rocket body
Debris
Shape & HBR
Unknown shape, 1.1 m
Radar Cross Section
Large (>1 m²)

Expand to show TLE details & history
Last TLE update: 3 days ago

TLE from 3 days ago
0 ARIANE 2 DEB
1 26728U 89006F   26171.40729521  .00000238  00000-0  17753-2 0  9993
2 26728   7.7754 202.6505 7013576 180.5390 177.7688  2.49760206220264
Epoch: 2026-06-20T09:46Z
TLE epoch observation values (Epoch: 2026-06-20T09:46:30.306Z)
Latitude
-0.00002°
Longitude
147.42453°
Altitude
32,641.426 km
Speed
1.749 km/s
True Right ascension
13h 30m 41s
True Declination
0° 00' 00"
Sunlit
Object was in daylight at epoch
Visualization orbit readout
Latitude
Unknown
Longitude
Unknown
Altitude
Unknown
Speed
Unknown
Apparent Right ascension
Unknown
Apparent Declination
Unknown
Sunlit
N/A
Visualization observer readout
Local Sidereal Time
11:33:39
Azimuth
Unknown
Elevation
Unknown
Doppler factor
Unknown
Orbital elements
Apogee altitude
32,671.149 km
Perigee altitude
476.255 km
Semi-major axis
22,951.839 km
Eccentricity
0.70136
Inclination
7.7754°
RAAN
202.6505°
Arg. of periapsis
180.539°
True anomaly
179.45052°
Mean anomaly
177.7688°
Eccentric anomaly
178.68853°
Mean motion
0.62419 °/min
Orbital period
576.75 mins
BSTAR
0.0017753
Loading maneuver chart data...
Computing Atmospheric mass density...
Loading historical data...
Loading historical data...
Loading historical data...
Loading historical data...
Loading historical data...
Loading historical data...
Loading historical data...

Documentation

Showing up to 5 results
|